"Period start","avg(HW err(1)/warn(2) (#))","avg(Visibility (m))","avg(Weather code (#))","avg(Precip intensity (mm/h))","min(HW err(1)/warn(2) (#))","max(HW err(1)/warn(2) (#))","std(HW err(1)/warn(2) (#))","med(HW err(1)/warn(2) (#))","min(Visibility (m))","max(Visibility (m))","std(Visibility (m))","med(Visibility (m))","min(Weather code (#))","max(Weather code (#))","std(Weather code (#))","med(Weather code (#))","min(Precip intensity (mm/h))","max(Precip intensity (mm/h))","std(Precip intensity (mm/h))","med(Precip intensity (mm/h))"
2014-08-02 00:00:00,0,49352,0,0.00,0,0,0,0,46191,50000,1130,50000,0,0,0,0,0.00,0.00,0.00,0.00
2014-08-02 00:10:00,0,49525,0,0.00,0,0,0,0,46557,50000,1047,50000,0,0,0,0,0.00,0.00,0.00,0.00
2014-08-02 00:20:00,0,49677,0,0.00,0,0,0,0,47229,50000,827,50000,0,0,0,0,0.00,0.00,0.00,0.00
2014-08-02 00:30:00,0,49529,0,0.00,0,0,0,0,45292,50000,1412,50000,0,0,0,0,0.00,0.00,0.00,0.00
2014-08-02 00:40:00,0,49756,0,0.00,0,0,0,0,48710,50000,489,50000,0,0,0,0,0.00,0.00,0.00,0.00
2014-08-02 00:50:00,0,50000,0,0.00,0,0,0,0,50000,50000,0,50000,0,0,0,0,0.00,0.00,0.00,0.00
2014-08-02 01:00:00,0,49736,0,0.00,0,0,0,0,47365,50000,790,50000,0,0,0,0,0.00,0.00,0.00,0.00
2014-08-02 01:10:00,0,49300,0,0.00,0,0,0,0,47306,50000,947,50000,0,0,0,0,0.00,0.00,0.00,0.00
2014-08-02 01:20:00,0,49451,0,0.00,0,0,0,0,45405,50000,1375,50000,0,0,0,0,0.00,0.00,0.00,0.00
2014-08-02 01:30:00,0,49828,0,0.00,0,0,0,0,48424,50000,470,50000,0,0,0,0,0.00,0.00,0.00,0.00
2014-08-02 01:40:00,0,49823,0,0.00,0,0,0,0,48233,50000,530,50000,0,0,0,0,0.00,0.00,0.00,0.00
2014-08-02 01:50:00,0,49358,0,0.00,0,0,0,0,46826,50000,990,50000,0,0,0,0,0.00,0.00,0.00,0.00
2014-08-02 02:00:00,0,49594,0,0.00,0,0,0,0,47423,50000,788,50000,0,0,0,0,0.00,0.00,0.00,0.00
2014-08-02 02:10:00,0,49924,0,0.00,0,0,0,0,49595,50000,152,50000,0,0,0,0,0.00,0.00,0.00,0.00
2014-08-02 02:20:00,0,49756,0,0.00,0,0,0,0,47557,50000,733,50000,0,0,0,0,0.00,0.00,0.00,0.00
2014-08-02 02:30:00,0,46382,0,0.00,0,0,0,0,38545,50000,3581,47482,0,0,0,0,0.00,0.00,0.00,0.00
2014-08-02 02:40:00,0,49155,0,0.00,0,0,0,0,45619,50000,1691,50000,0,0,0,0,0.00,0.00,0.00,0.00
2014-08-02 02:50:00,0,48665,0,0.00,0,0,0,0,42996,50000,2674,50000,0,0,0,0,0.00,0.00,0.00,0.00
2014-08-02 03:00:00,0,47414,0,0.00,0,0,0,0,37389,50000,4028,49908,0,0,0,0,0.00,0.00,0.00,0.00
2014-08-02 03:10:00,0,49600,0,0.00,0,0,0,0,47781,50000,806,50000,0,0,0,0,0.00,0.00,0.00,0.00
2014-08-02 03:20:00,0,45287,0,0.00,0,0,0,0,33714,50000,5715,48187,0,0,0,0,0.00,0.00,0.00,0.00
2014-08-02 03:30:00,0,44954,0,0.00,0,0,0,0,35585,50000,5289,46206,0,0,0,0,0.00,0.00,0.00,0.00
2014-08-02 03:40:00,0,48148,0,0.00,0,0,0,0,44282,50000,1831,48553,0,0,0,0,0.00,0.00,0.00,0.00
2014-08-02 03:50:00,0,49495,0,0.00,0,0,0,0,44954,50000,1514,50000,0,0,0,0,0.00,0.00,0.00,0.00
2014-08-02 04:00:00,0,48614,0,0.00,0,0,0,0,42281,50000,2572,50000,0,0,0,0,0.00,0.00,0.00,0.00
2014-08-02 04:10:00,0,46854,0,0.00,0,0,0,0,40800,50000,3445,48150,0,0,0,0,0.00,0.00,0.00,0.00
2014-08-02 04:20:00,0,46306,0,0.00,0,0,0,0,42844,50000,2461,45764,0,0,0,0,0.00,0.00,0.00,0.00
2014-08-02 04:30:00,0,46856,0,0.00,0,0,0,0,39188,50000,3974,49336,0,0,0,0,0.00,0.00,0.00,0.00
2014-08-02 04:40:00,0,44183,0,0.00,0,0,0,0,38683,49860,3635,43777,0,0,0,0,0.00,0.00,0.00,0.00
2014-08-02 04:50:00,0,40059,0,0.00,0,0,0,0,31882,50000,5708,38744,0,0,0,0,0.00,0.00,0.00,0.00
2014-08-02 05:00:00,0,41223,0,0.00,0,0,0,0,29621,50000,6569,42605,0,0,0,0,0.00,0.00,0.00,0.00
2014-08-02 05:10:00,0,26833,0,0.00,0,0,0,0,17711,36014,7366,27186,0,0,0,0,0.00,0.00,0.00,0.00
2014-08-02 05:20:00,0,12429,1,0.00,0,0,0,0,2834,24507,7608,9288,0,10,3,0,0.00,0.00,0.00,0.00
2014-08-02 05:30:00,0,3740,10,0.00,0,0,0,0,2699,5544,769,3482,10,10,0,10,0.00,0.00,0.00,0.00
2014-08-02 05:40:00,0,2717,10,0.00,0,0,0,0,2229,3565,384,2624,10,10,0,10,0.00,0.00,0.00,0.00
2014-08-02 05:50:00,0,3508,10,0.00,0,0,0,0,2832,4555,564,3428,10,10,0,10,0.00,0.00,0.00,0.00
2014-08-02 06:00:00,0,3758,10,0.00,0,0,0,0,2872,4514,512,3867,10,10,0,10,0.00,0.00,0.00,0.00
2014-08-02 06:10:00,0,4581,10,0.00,0,0,0,0,3364,5569,678,4694,10,10,0,10,0.00,0.00,0.00,0.00
2014-08-02 06:20:00,0,3985,10,0.00,0,0,0,0,3186,5062,595,3930,10,10,0,10,0.00,0.00,0.00,0.00
2014-08-02 06:30:00,0,4068,10,0.00,0,0,0,0,3262,4726,466,4132,10,10,0,10,0.00,0.00,0.00,0.00
2014-08-02 06:40:00,0,6148,10,0.00,0,0,0,0,4315,8089,978,6110,10,10,0,10,0.00,0.00,0.00,0.00
2014-08-02 06:50:00,0,6465,10,0.00,0,0,0,0,4447,11662,1964,5978,10,10,0,10,0.00,0.00,0.00,0.00
2014-08-02 07:00:00,0,8696,10,0.00,0,0,0,0,4329,13357,2665,8394,10,10,0,10,0.00,0.00,0.00,0.00
2014-08-02 07:10:00,0,11431,8,0.00,0,0,0,0,4483,23503,6224,8738,0,10,4,10,0.00,0.00,0.00,0.00
2014-08-02 07:20:00,0,8028,10,0.00,0,0,0,0,6111,10233,1200,7858,10,10,0,10,0.00,0.00,0.00,0.00
2014-08-02 07:30:00,0,9445,10,0.00,0,0,0,0,6473,12874,1950,9360,10,10,0,10,0.00,0.00,0.00,0.00
2014-08-02 07:40:00,0,21530,8,0.00,0,0,0,0,6635,31221,8009,23596,0,10,4,10,0.00,0.00,0.00,0.00
2014-08-02 07:50:00,0,34648,0,0.00,0,0,0,0,27052,48426,6598,33790,0,0,0,0,0.00,0.00,0.00,0.00
2014-08-02 08:00:00,0,16783,0,0.00,0,0,0,0,7542,40373,8763,14414,0,0,0,0,0.00,0.00,0.00,0.00
2014-08-02 08:10:00,0,21424,0,0.00,0,0,0,0,17137,25044,2909,20824,0,0,0,0,0.00,0.00,0.00,0.00
2014-08-02 08:20:00,0,28231,0,0.00,0,0,0,0,24418,35115,3085,27540,0,0,0,0,0.00,0.00,0.00,0.00
2014-08-02 08:30:00,0,28586,0,0.00,0,0,0,0,22915,40010,5260,27040,0,0,0,0,0.00,0.00,0.00,0.00
2014-08-02 08:40:00,0,30133,0,0.00,0,0,0,0,18683,39574,6746,31056,0,0,0,0,0.00,0.00,0.00,0.00
2014-08-02 08:50:00,0,37286,0,0.00,0,0,0,0,28428,41660,3631,38342,0,0,0,0,0.00,0.00,0.00,0.00
2014-08-02 09:00:00,0,45055,0,0.00,0,0,0,0,36268,50000,3919,46060,0,0,0,0,0.00,0.00,0.00,0.00
2014-08-02 09:10:00,0,40364,0,0.00,0,0,0,0,25379,50000,7884,41860,0,0,0,0,0.00,0.00,0.00,0.00
2014-08-02 09:20:00,0,32788,0,0.00,0,0,0,0,24328,40165,5119,33580,0,0,0,0,0.00,0.00,0.00,0.00
2014-08-02 09:30:00,0,38462,0,0.00,0,0,0,0,30023,47624,5736,39248,0,0,0,0,0.00,0.00,0.00,0.00
2014-08-02 09:40:00,0,47318,0,0.00,0,0,0,0,33424,50000,4831,49283,0,0,0,0,0.00,0.00,0.00,0.00
2014-08-02 09:50:00,0,41419,0,0.00,0,0,0,0,32427,46909,4703,41754,0,0,0,0,0.00,0.00,0.00,0.00
2014-08-02 10:00:00,0,31108,0,0.00,0,0,0,0,24253,40684,4134,31142,0,0,0,0,0.00,0.00,0.00,0.00
2014-08-02 10:10:00,0,28183,0,0.00,0,0,0,0,21382,35609,3774,27680,0,0,0,0,0.00,0.00,0.00,0.00
2014-08-02 10:20:00,0,22436,0,0.00,0,0,0,0,17579,29924,4921,19560,0,0,0,0,0.00,0.00,0.00,0.00
2014-08-02 10:30:00,0,21944,0,0.00,0,0,0,0,16384,25430,3206,22784,0,0,0,0,0.00,0.00,0.00,0.00
2014-08-02 10:40:00,0,18402,0,0.00,0,0,0,0,15492,23746,2728,17304,0,0,0,0,0.00,0.00,0.00,0.00
2014-08-02 10:50:00,0,18692,0,0.00,0,0,0,0,14184,24875,3317,18818,0,0,0,0,0.00,0.00,0.00,0.00
2014-08-02 11:00:00,0,24952,0,0.00,0,0,0,0,20627,31278,2933,24552,0,0,0,0,0.00,0.00,0.00,0.00
2014-08-02 11:10:00,0,33580,0,0.00,0,0,0,0,25103,40506,4417,33673,0,0,0,0,0.00,0.00,0.00,0.00
2014-08-02 11:20:00,0,31273,0,0.00,0,0,0,0,21458,42518,5910,30618,0,0,0,0,0.00,0.00,0.00,0.00
2014-08-02 11:30:00,0,37550,0,0.00,0,0,0,0,29233,46597,5492,35924,0,0,0,0,0.00,0.00,0.00,0.00
2014-08-02 11:40:00,0,40848,0,0.00,0,0,0,0,29614,50000,5757,41745,0,0,0,0,0.00,0.00,0.00,0.00
2014-08-02 11:50:00,0,44719,0,0.00,0,0,0,0,41047,47658,2278,45202,0,0,0,0,0.00,0.00,0.00,0.00
2014-08-02 12:00:00,0,42930,0,0.00,0,0,0,0,35484,48918,4212,43261,0,0,0,0,0.00,0.00,0.00,0.00
2014-08-02 12:10:00,0,37927,0,0.00,0,0,0,0,28873,43716,5040,39780,0,0,0,0,0.00,0.00,0.00,0.00
2014-08-02 12:20:00,0,41526,0,0.00,0,0,0,0,34740,50000,4120,40850,0,0,0,0,0.00,0.00,0.00,0.00
2014-08-02 12:30:00,0,27138,0,0.00,0,0,0,0,11588,36031,7992,29488,0,0,0,0,0.00,0.00,0.00,0.00
2014-08-02 12:40:00,0,10756,0,0.00,0,0,0,0,3823,16342,3508,11053,0,0,0,0,0.00,0.00,0.00,0.00
2014-08-02 12:50:00,0,19322,0,0.00,0,0,0,0,13589,26013,3821,18669,0,0,0,0,0.00,0.00,0.00,0.00
2014-08-02 13:00:00,0,7154,4,0.00,0,0,0,0,2740,25498,6456,4546,0,10,5,0,0.00,0.00,0.00,0.00
2014-08-02 13:10:00,0,2752,10,0.00,0,0,0,0,531,8506,2944,946,10,10,0,10,0.00,0.00,0.00,0.00
2014-08-02 13:20:00,0,8176,10,0.00,0,0,0,0,6721,9618,981,8349,10,10,0,10,0.00,0.00,0.00,0.00
2014-08-02 13:30:00,0,1061,24,0.00,0,0,0,0,230,6395,1802,390,10,34,12,34,0.00,0.00,0.00,0.00
2014-08-02 13:40:00,0,2243,34,0.00,0,0,0,0,365,10964,3437,525,34,34,0,34,0.00,0.00,0.00,0.00
2014-08-02 13:50:00,0,862,34,0.00,0,0,0,0,270,2758,723,668,34,34,0,34,0.00,0.00,0.00,0.00
2014-08-02 14:00:00,0,630,34,0.00,0,0,0,0,364,971,197,612,34,34,0,34,0.00,0.00,0.00,0.00
2014-08-02 14:10:00,0,366,34,0.00,0,0,0,0,287,478,67,350,34,34,0,34,0.00,0.00,0.00,0.00
2014-08-02 14:20:00,0,375,34,0.00,0,0,0,0,331,448,33,378,34,34,0,34,0.00,0.00,0.00,0.00
2014-08-02 14:30:00,0,632,34,0.00,0,0,0,0,337,1538,441,430,34,34,0,34,0.00,0.00,0.00,0.00
2014-08-02 14:40:00,0,1426,31,0.00,0,0,0,0,507,3273,874,1032,31,34,1,31,0.00,0.00,0.00,0.00
2014-08-02 14:50:00,0,2920,31,0.00,0,0,0,0,877,7504,2066,2002,31,31,0,31,0.00,0.00,0.00,0.00
2014-08-02 15:00:00,0,1918,31,0.00,0,0,0,0,1103,2683,451,1900,31,31,0,31,0.00,0.00,0.00,0.00
2014-08-02 15:10:00,0,3258,20,0.00,0,0,0,0,1568,4540,1098,3620,20,20,0,20,0.00,0.00,0.00,0.00
2014-08-02 15:20:00,0,728,25,0.00,0,0,0,0,338,1324,327,726,20,32,6,20,0.00,0.00,0.00,0.00
2014-08-02 15:30:00,0,622,34,0.00,0,0,0,0,408,1149,200,569,32,34,1,34,0.00,0.00,0.00,0.00
2014-08-02 15:40:00,0,597,34,0.00,0,0,0,0,433,962,174,510,34,34,0,34,0.00,0.00,0.00,0.00
2014-08-02 15:50:00,0,643,34,0.00,0,0,0,0,511,998,154,566,34,34,0,34,0.00,0.00,0.00,0.00
2014-08-02 16:00:00,0,846,34,0.00,0,0,0,0,690,1016,88,848,34,34,0,34,0.00,0.00,0.00,0.00
2014-08-02 16:10:00,0,1118,32,0.00,0,0,0,0,726,1381,191,1121,30,34,2,33,0.00,0.00,0.00,0.00
2014-08-02 16:20:00,0,1159,22,0.00,0,0,0,0,978,1365,130,1151,20,30,4,20,0.00,0.00,0.00,0.00
2014-08-02 16:30:00,0,982,26,0.00,0,0,0,0,574,1374,232,1010,20,32,6,25,0.00,0.00,0.00,0.00
2014-08-02 16:40:00,0,1114,29,0.00,0,0,0,0,919,1277,125,1066,20,30,3,30,0.00,0.00,0.00,0.00
2014-08-02 16:50:00,0,1099,20,0.00,0,0,0,0,1024,1198,45,1091,20,20,0,20,0.00,0.00,0.00,0.00
2014-08-02 17:00:00,0,1072,20,0.00,0,0,0,0,940,1156,70,1090,20,20,0,20,0.00,0.00,0.00,0.00
2014-08-02 17:10:00,0,789,27,0.00,0,0,0,0,552,1086,182,752,20,33,6,30,0.00,0.00,0.00,0.00
2014-08-02 17:20:00,0,816,33,0.00,0,0,0,0,398,1272,267,792,33,33,0,33,0.00,0.00,0.00,0.00
2014-08-02 17:30:00,0,1202,31,0.00,0,0,0,0,726,2701,561,959,30,33,1,30,0.00,0.00,0.00,0.00
2014-08-02 17:40:00,0,1965,24,0.00,0,0,0,0,1445,2891,439,1844,20,30,5,20,0.00,0.00,0.00,0.00
2014-08-02 17:50:00,0,1868,20,0.00,0,0,0,0,1613,2268,230,1791,20,20,0,20,0.00,0.00,0.00,0.00
2014-08-02 18:00:00,0,2380,20,0.00,0,0,0,0,1799,2978,353,2285,20,20,0,20,0.00,0.00,0.00,0.00
2014-08-02 18:10:00,0,2354,20,0.00,0,0,0,0,1794,3297,452,2214,20,20,0,20,0.00,0.00,0.00,0.00
2014-08-02 18:20:00,0,2420,20,0.00,0,0,0,0,1974,3006,334,2390,20,20,0,20,0.00,0.00,0.00,0.00
2014-08-02 18:30:00,0,3495,20,0.00,0,0,0,0,2508,4355,464,3477,20,20,0,20,0.00,0.00,0.00,0.00
2014-08-02 18:40:00,0,3585,13,0.00,0,0,0,0,2808,5569,777,3420,10,20,5,10,0.00,0.00,0.00,0.00
2014-08-02 18:50:00,0,3900,10,0.00,0,0,0,0,3220,4793,452,3849,10,10,0,10,0.00,0.00,0.00,0.00
2014-08-02 19:00:00,0,3269,10,0.00,0,0,0,0,2835,3829,312,3207,10,10,0,10,0.00,0.00,0.00,0.00
2014-08-02 19:10:00,0,2405,10,0.00,0,0,0,0,2176,2786,175,2366,10,10,0,10,0.00,0.00,0.00,0.00
2014-08-02 19:20:00,0,2393,10,0.00,0,0,0,0,1921,2792,271,2378,10,10,0,10,0.00,0.00,0.00,0.00
2014-08-02 19:30:00,0,2594,10,0.00,0,0,0,0,2217,3080,280,2508,10,10,0,10,0.00,0.00,0.00,0.00
2014-08-02 19:40:00,0,3171,10,0.00,0,0,0,0,2822,3670,225,3142,10,10,0,10,0.00,0.00,0.00,0.00
2014-08-02 19:50:00,0,2909,10,0.00,0,0,0,0,2267,3454,330,2832,10,10,0,10,0.00,0.00,0.00,0.00
2014-08-02 20:00:00,0,3368,10,0.00,0,0,0,0,3169,3495,111,3401,10,10,0,10,0.00,0.00,0.00,0.00
2014-08-02 20:10:00,0,3768,10,0.00,0,0,0,0,3231,4673,410,3697,10,10,0,10,0.00,0.00,0.00,0.00
2014-08-02 20:20:00,0,4218,10,0.00,0,0,0,0,3502,4971,485,4098,10,10,0,10,0.00,0.00,0.00,0.00
2014-08-02 20:30:00,0,3348,10,0.00,0,0,0,0,2695,4068,348,3381,10,10,0,10,0.00,0.00,0.00,0.00
2014-08-02 20:40:00,0,3112,10,0.00,0,0,0,0,2521,3567,304,3166,10,10,0,10,0.00,0.00,0.00,0.00
2014-08-02 20:50:00,0,2417,10,0.00,0,0,0,0,2040,2822,242,2402,10,10,0,10,0.00,0.00,0.00,0.00
2014-08-02 21:00:00,0,2017,10,0.00,0,0,0,0,1870,2116,86,2038,10,10,0,10,0.00,0.00,0.00,0.00
2014-08-02 21:10:00,0,1604,10,0.00,0,0,0,0,1439,2083,184,1550,10,10,0,10,0.00,0.00,0.00,0.00
2014-08-02 21:20:00,0,1369,10,0.00,0,0,0,0,1292,1440,39,1378,10,10,0,10,0.00,0.00,0.00,0.00
2014-08-02 21:30:00,0,1323,10,0.00,0,0,0,0,1262,1378,33,1327,10,10,0,10,0.00,0.00,0.00,0.00
2014-08-02 21:40:00,0,1277,10,0.00,0,0,0,0,1162,1394,66,1266,10,10,0,10,0.00,0.00,0.00,0.00
2014-08-02 21:50:00,0,1230,10,0.00,0,0,0,0,1151,1318,52,1222,10,10,0,10,0.00,0.00,0.00,0.00
2014-08-02 22:00:00,0,1555,10,0.00,0,0,0,0,1337,1800,125,1576,10,10,0,10,0.00,0.00,0.00,0.00
2014-08-02 22:10:00,0,1570,10,0.00,0,0,0,0,1454,1703,72,1572,10,10,0,10,0.00,0.00,0.00,0.00
2014-08-02 22:20:00,0,1985,10,0.00,0,0,0,0,1666,2513,256,1972,10,10,0,10,0.00,0.00,0.00,0.00
2014-08-02 22:30:00,0,2154,10,0.00,0,0,0,0,1809,2716,262,2074,10,10,0,10,0.00,0.00,0.00,0.00
2014-08-02 22:40:00,0,1846,10,0.00,0,0,0,0,1703,1933,76,1873,10,10,0,10,0.00,0.00,0.00,0.00
2014-08-02 22:50:00,0,2364,10,0.00,0,0,0,0,1797,3388,504,2192,10,10,0,10,0.00,0.00,0.00,0.00
2014-08-02 23:00:00,0,2640,10,0.00,0,0,0,0,2101,3413,446,2380,10,10,0,10,0.00,0.00,0.00,0.00
2014-08-02 23:10:00,0,2295,10,0.00,0,0,0,0,2068,2609,163,2272,10,10,0,10,0.00,0.00,0.00,0.00
2014-08-02 23:20:00,0,2346,10,0.00,0,0,0,0,1903,2653,192,2368,10,10,0,10,0.00,0.00,0.00,0.00
2014-08-02 23:30:00,0,3399,10,0.00,0,0,0,0,2445,4769,869,2974,10,10,0,10,0.00,0.00,0.00,0.00
2014-08-02 23:40:00,0,5828,10,0.00,0,0,0,0,3904,8602,1298,5626,10,10,0,10,0.00,0.00,0.00,0.00
2014-08-02 23:50:00,0,6425,10,0.00,0,0,0,0,4701,10922,1888,5486,10,10,0,10,0.00,0.00,0.00,0.00
